Regional Weather Roundup
Issued by NWS

Home | Current Version | Previous Version | Graphics & Text | Print | Product List | Glossary On
Versions: 1 2 3 4 5 6 7 8 9 10 11 12 13 14 15 16 17 18 19 20 21 22 23 24 25 26 27 28 29 30 31 32 33 34 35 36 37 38 39 40 41 42 43 44 45 46 47 48 49 50
000
ASUS43 KOAX 251502
RWRNE

WEATHER ROUNDUP FOR NEBRASKA
NATIONAL WEATHER SERVICE OMAHA NE
1000 AM CDT SAT MAR 25 2017

NOTES: SATELLITE DATA IS BEING USED TO AUGMENT CLOUD COVER ABOVE
       12000 FEET.
       "FAIR" INDICATES FEW OR NO CLOUDS BELOW 12,000 FEET WITH NO
       SIGNIFICANT WEATHER AND/OR OBSTRUCTIONS TO VISIBILITY.

  * THESE STATIONS DO NOT REPORT WEATHER SUCH AS RAIN...SNOW OR FOG.

NEZ001>004-019>022-054>056-251600-
NEBRASKA PANHANDLE

CITY           SKY/WX    TMP DP  RH WIND       PRES   REMARKS
SCOTTSBLUFF    SUNNY     42  33  70 E9        30.02F
ALLIANCE       CLOUDY    46  35  65 SW12      30.02S
CHADRON        CLOUDY    52  30  43 S18       29.96F
KIMBALL        SUNNY     43  37  80 SW9       30.04F
SIDNEY         SUNNY     45  35  68 SW12      30.05S
$$

NEZ057>060-069>072-079>082-251600-
SOUTHWEST NEBRASKA

CITY           SKY/WX    TMP DP  RH WIND       PRES   REMARKS
NORTH PLATTE   SUNNY     38  32  79 NW9       30.07S WCI  31
IMPERIAL       SUNNY     41  33  73 N5        30.06F
LEXINGTON      CLOUDY    36  34  95 N9        30.05S FOG     WCI  29
MCCOOK         SUNNY     40  35  83 NW12      30.06R WCI  33
OGALLALA       SUNNY     37  33  87 W8        30.07S WCI  31
$$

NEZ005>010-023>029-035>040-094-251600-
NORTH CENTRAL NEBRASKA

CITY           SKY/WX    TMP DP  RH WIND       PRES   REMARKS
VALENTINE      FOG       30  29  96 CALM      30.06F VSB 1/4
AINSWORTH      FOG       30  30 100 SE3       30.07F VSB 1/4
BROKEN BOW     FOG       34  34 100 N12       30.05S VSB 1   WCI  25
O`NEILL        FOG       34  34 100 NE7       30.08S VSB<1/4 WCI  28
ORD            FOG       36  34  92 N14       30.05S VSB 1   WCI  27
THEDFORD       CLOUDY    33  32  94 NE3       30.07S
$$

NEZ041-046>049-061>064-073>077-083>087-251600-
SOUTH CENTRAL NEBRASKA

CITY           SKY/WX    TMP DP  RH WIND       PRES   REMARKS
GRAND ISLAND   CLOUDY    35  35 100 N17G25    30.02F FOG     WCI  25
AURORA         CLOUDY    36  35  99 N18G24    30.01S FOG     WCI  25
HASTINGS       CLOUDY    36  35  96 N20       30.02S FOG     WCI  25
HEBRON         CLOUDY    39  37  90 N13G25    29.98S WCI  32
HOLDREGE       CLOUDY    37  36  96 N20       30.02S FOG     WCI  27
KEARNEY *      CLOUDY    37  34  87 N15G23    30.04R WCI  28
YORK           LGT RAIN  37  37 100 N20G28    30.00F WCI  27
$$

NEZ011>018-030>034-042>045-251600-
NORTHEAST NEBRASKA

CITY           SKY/WX    TMP DP  RH WIND       PRES   REMARKS
NORFOLK        CLOUDY    35  34  96 N14       30.04F FOG     WCI  26
ALBION         CLOUDY    36  34  92 N13       30.05S FOG     WCI  28
BLAIR          LGT RAIN  39  38  97 N16G23    29.96F WCI  30
FREMONT        DRIZZLE   39  39  98 N10       30.01F WCI  33
TEKAMAH        LGT RAIN  40  37  89 N15       30.01F WCI  32
WAYNE          CLOUDY    37  37  99 N14       30.05F FOG     WCI  28
$$

NEZ050>053-065>068-078-088>093-251600-
SOUTHEAST NEBRASKA

CITY           SKY/WX    TMP DP  RH WIND       PRES   REMARKS
LINCOLN        LGT RAIN  41  38  89 N18       29.99F
OMAHA EPPLEY   LGT RAIN  41  37  86 N15       29.98S
BEATRICE       CLOUDY    40  39  97 N17G29    29.95S WCI  31
FALLS CITY     LGT RAIN  43  41  93 N16G24    29.89F
NEBRASKA CITY  LGT RAIN  40  40 100 N16       29.94S WCI  31
PLATTSMOUTH    LGT RAIN  40  37  87 N15G22    29.96S WCI  32
$$

NEZ044-045-051>053-067-251600-
OMAHA AREA

CITY           SKY/WX    TMP DP  RH WIND       PRES   REMARKS
OMAHA EPPLEY   LGT RAIN  41  37  86 N15       29.98S
BLAIR          LGT RAIN  39  38  97 N16G23    29.96F WCI  30
FREMONT        DRIZZLE   39  39  98 N10       30.01F WCI  33
MILLARD        LGT RAIN  42  40  95 N8        29.98F
OFFUTT AFB     LGT RAIN  41  37  88 N17G23    29.96F
PLATTSMOUTH    LGT RAIN  40  37  87 N15G22    29.96S WCI  32
WAHOO          CLOUDY    40  38  91 N16       29.99F WCI  32
$$




USA.gov is the U.S. government's official web portal to all federal, state and local government web resources and services.